#timestamp,LO_Frequency,Hit,StdDev 
1622062815.4,286047000.2,N
1622062835.2,286047002.0,N
1622062855.0,286047003.7,N
1622062855.9,286047003.7,N
1622062875.8,286047002.0,N
1622062895.6,286047000.9,N
1622062915.4,286047000.1,N
1622062935.3,286046999.1,N
1622062955.1,286046997.0,N
1622062975.9,286046998.1,N
1622062995.7,286046997.3,N
1622063015.5,286046993.7,Y
1622063035.4,286046994.4,P
1622063055.2,286046994.9,N
1622063075.0,286046998.0,N
1622063075.9,286046998.0,N
1622063095.8,286046995.4,N
1622063115.6,286046999.6,N
1622063135.5,286046999.5,N
1622063155.3,286046998.1,N
1622063175.1,286047001.1,N
1622063195.9,286046997.3,N
1622063215.7,286046998.3,N
1622063235.6,286047000.9,N
1622063255.4,286046999.8,N
1622063275.2,286047001.2,N
1622063295.1,286047000.1,N
1622063296.0,286047000.1,N
1622063315.8,286046999.8,N
1622063335.6,286046997.1,N
1622063355.5,286047000.4,N
1622063375.3,286046999.7,N
1622063395.2,286046996.7,N
1622063415.9,286046999.1,N
1622063435.7,286046998.1,N
1622063455.6,286047000.5,N
1622063475.4,286047001.1,N
1622063495.3,286047002.2,N
1622063515.1,286047004.0,N
1622063516.0,286047004.0,N
1622063535.8,286047002.7,N
1622063555.7,286047001.8,N
1622063575.5,286047002.0,N
1622063595.3,286047001.2,N
1622063615.2,286047000.4,N
1622063635.0,286046998.5,N
1622063635.9,286046998.5,N
1622063655.8,286046998.9,N
1622063675.6,286047001.2,N
1622063695.4,286046998.8,N
1622063715.3,286046996.5,N
1622063735.1,286046996.9,N
1622063755.9,286046997.5,N
1622063775.7,286046995.3,N
1622063795.5,286046996.4,N
1622063815.4,286046995.3,N
1622063835.2,286046997.0,N
1622063855.1,286046997.7,N
1622063856.0,286046997.7,N
1622063875.8,286046996.2,N
1622063895.6,286046996.0,N
1622063915.5,286046994.7,N
1622063935.3,286046991.8,Y
1622063955.2,286046997.2,P
1622063975.9,286046995.1,P
1622063995.7,286046995.8,N
1622064015.6,286046995.3,Y
1622064035.4,286046997.2,P
1622064055.2,286046995.2,P
1622064075.1,286046996.2,P
1622064076.0,286046996.2,Y
1622064095.8,286046998.1,P
1622064115.7,286047002.3,N
1622064135.5,286047001.5,N
1622064155.3,286047001.4,N
1622064175.2,286047004.0,N
1622064195.0,286047001.5,N
1622064195.9,286047001.5,N
1622064215.8,286047002.0,N
1622064235.6,286047001.9,N
1622064255.4,286047002.1,N
1622064275.3,286047001.6,N
1622064295.1,286047002.5,N
1622064315.9,286047011.9,Y
1622064335.7,286046999.0,P
1622064355.5,286046997.1,N
1622064375.4,286046997.7,N
1622064395.2,286046998.1,N
1622064415.0,286047000.4,N
1622064415.9,286047000.4,N
1622064435.8,286047000.1,N
1622064455.6,286046998.2,N
1622064475.5,286047001.2,N
1622064495.3,286047000.7,N
1622064515.1,286046998.3,N
1622064535.9,286046998.3,N
1622064555.7,286046999.6,N
1622064575.5,286046997.0,N
1622064595.4,286046999.4,N
1622064615.2,286046998.1,N
1622064635.1,286046998.8,N
1622064636.0,286046998.8,N
1622064655.8,286046998.8,N
1622064675.6,286046999.2,N
1622064695.5,286046996.5,N
1622064715.3,286046997.8,N
1622064735.1,286046998.5,N
1622064755.9,286046998.7,N
1622064775.7,286046999.3,N
1622064795.6,286047000.2,N
1622064815.4,286047001.5,N
1622064835.2,286047002.4,N
1622064855.1,286047003.5,N
1622064856.0,286047003.5,N
1622064875.8,286047004.2,N
1622064895.7,286047003.1,N
1622064915.5,286047002.9,N
1622064935.3,286047003.5,N
1622064955.2,286047004.0,N
1622064975.0,286047005.3,N
1622064975.9,286047005.3,N
1622064995.7,286047006.0,N
1622065015.6,286047002.9,N
1622065035.4,286047002.9,N
1622065055.3,286047003.8,N
1622065075.1,286047001.8,N
1622065076.0,286047001.8,N
1622065095.8,286047001.7,N
1622065115.7,286047001.5,N
1622065135.5,286047002.1,N
1622065155.3,286047002.6,N
1622065175.2,286047004.0,N
1622065195.0,286047002.4,N
1622065195.9,286047002.4,N
1622065215.8,286047002.7,N
1622065235.6,286047002.7,N
1622065255.4,286047001.6,N
1622065275.3,286047004.2,N
1622065295.1,286047003.2,N
1622065315.8,286047002.4,N
1622065335.7,286047004.4,Y
1622065355.5,286046998.5,P
1622065375.4,286047000.5,N
1622065395.2,286047000.9,N
1622065415.0,286046998.6,N
1622065415.9,286046998.6,N
1622065435.8,286047000.0,N
1622065455.6,286047000.0,N
1622065475.4,286047002.3,N
1622065495.3,286047002.2,N
1622065515.1,286047004.4,N
1622065535.9,286047004.1,N
1622065555.7,286047003.8,N
1622065575.5,286047004.2,N
1622065595.4,286047001.6,N
1622065615.2,286047003.5,N
1622065635.0,286047003.2,N
1622065635.9,286047003.2,N
1622065655.8,286047002.9,N
1622065675.6,286047005.5,N
1622065695.5,286047003.4,N
1622065715.3,286047005.8,N
1622065735.1,286047001.7,N
1622065755.9,286047003.8,N
1622065775.7,286047002.8,N
1622065795.5,286047001.5,N
1622065815.4,286047005.6,N
1622065835.2,286047002.0,N
1622065855.1,286047003.8,N
1622065856.0,286047003.8,N
1622065875.8,286047002.4,N
1622065895.6,286047001.6,N
1622065915.5,286047002.2,N
1622065935.3,286047001.4,N
1622065955.1,286047002.3,N
1622065975.9,286047001.6,N
1622065995.7,286047005.5,Y
1622066015.6,286047000.0,P
1622066035.4,286047000.2,N
1622066055.2,286047001.0,N
1622066075.1,286047000.3,N
1622066076.0,286047000.3,N
1622066095.8,286046999.7,N
1622066115.6,286046998.1,N
1622066135.5,286046999.7,N
1622066155.3,286046999.8,N
1622066175.2,286047002.8,N
1622066195.9,286047002.1,N
1622066215.7,286047001.0,N
1622066235.6,286046999.1,N
1622066255.4,286046998.3,N
1622066275.2,286047002.5,N
1622066295.1,286047002.8,N
1622066296.0,286047002.8,N
1622066315.8,286046999.8,N
1622066335.7,286046999.7,N
1622066355.5,286047004.0,N
1622066375.3,286047004.4,N
1622066395.2,286047001.6,N
